COSMOS 2251 DEB, 40238

Orbit data source: Space-Track

COSMOS 2251 DEB, 40238 is space debris in LEO originally from a launch on Wed, 16 Jun 1993 UTC launched from the Plesetsk Missile And Space Complex (PKMTR). The debris from Iridium 33, an American commercial communications satellite, has been tracked extensively since its accidental collision with the defunct Russian satellite Cosmos 2251 in 2009. This event, occurring at high speed in low Earth orbit (LEO), generated thousands of pieces of space debris, significantly increasing the risk of further collisions. The Iridium 33 debris cloud has impacted space traffic management and orbital debris mitigation strategies, making it a subject of ongoing study in space situational awareness.

Loading next visibility...
Identifier
40238, 1993-036BVT
Orbit
LEO
Country
Flag of CISCIS
Related business
Manufacturer
Unknown
Mission
Spacecraft
Bus & Motor
Unknown
Mass
Unknown
Launch date (UTC)
1993-06-16 (32 years ago)
Launch vehicle
Unknown
Launch site
Plesetsk Missile And Space Complex (PKMTR)
Object type
Payload
Rocket body
Debris
Shape & HBR
Unknown shape, 0.1 m
Radar Cross Section
Small (<0.1 m²)

Expand to show TLE details & history
Last TLE update: 1 week ago

TLE from 1 week ago
0 COSMOS 2251 DEB
1 40238U 93036BVT 25291.97318460  .00001605  00000-0  16469-2 0  9995
2 40238  73.9854 147.6882 0552247 130.6036 234.4481 13.24897269533115
Epoch: 2025-10-18T23:21Z
TLE epoch observation values (Epoch: 2025-10-18T23:21:23.149Z)
Latitude
-0.00005°
Longitude
129.64521°
Altitude
1,425.358 km
Speed
7.026 km/s
True Right ascension
09h 50m 45s
True Declination
0° 00' 00"
Sunlit
Object was in daylight at epoch
Visualization orbit readout
Latitude
Unknown
Longitude
Unknown
Altitude
Unknown
Speed
Unknown
Apparent Right ascension
Unknown
Apparent Declination
Unknown
Sunlit
N/A
Visualization observer readout
Local Sidereal Time
05:49:45
Azimuth
Unknown
Elevation
Unknown
Doppler factor
Unknown
Orbital elements
Apogee altitude
1,580.316 km
Perigee altitude
747.312 km
Semi-major axis
7,541.951 km
Eccentricity
0.05522
Inclination
73.9854°
RAAN
147.6882°
Arg. of periapsis
130.6036°
True anomaly
229.50455°
Mean anomaly
234.4481°
Eccentric anomaly
231.95621°
Mean motion
3.31373 °/min
Orbital period
108.64 mins
BSTAR
0.0016469

Documentation

Showing up to 5 results
|